User: anonymous   Login
Location: Caltech
(34.1382°N, 118.1253°W)
Time: 13:00:32
(UTC-08:00)
Language:

SL-16 R/B - Orbit

View from above orbital plane
View from above orbital plane
View from above satellite
View from above satellite

Ground track
Ground track

The orbit data is extracted from the following two-line orbital elements,

1 31793U 07029B   15027.55438440 -.00000121  00000-0 -38382-4 0  1771
2 31793 070.9767 059.9328 0002714 290.2994 184.1804 14.14314856391473
Epoch (UTC): 27 January 2015 13:18:18
Eccentricity: 0.0002714
inclination: 70.9767°
perigee height: 842 km
apogee height: 846 km
right ascension of ascending node: 59.9328°
argument of perigee: 290.2994°
revolutions per day: 14.14314856
mean anomaly at epoch: 184.1804°
orbit number at epoch: 39147

The dashed part of the orbit path shows where the satellite is in the earth's shadow,  

DLR